Kuchera_Ratio
3.4 5.3 6.9 7.9 8.6 9.1 9.4 9.9 10.2 10.6 10.8 10.9 11.0 10.8 10.6 10.3 10.0 10.0 10.0 9.9 10.1 10.3 10.6 10.9 11.2 11.6 12.1 12.4 12.6 12.2 12.8 12.7 12.8 12.4 12.7 12.6 11.6 10.8 10.7 10.8 9.6 8.3
4.1 6.0 7.6 8.7 9.6 10.2 10.6 10.9 11.1 11.3 11.6 11.7 11.9 12.0 12.1 12.1 12.1 12.0 11.9 11.8 11.8 11.8 11.9 12.1 12.2 12.4 12.6 12.9 13.1 13.3 13.1 13.2 13.4 11.7 12.7 12.5 12.9 12.4 12.3 12.6 12.7 10.3
5.4 7.1 8.6 9.8 10.7 11.3 11.6 11.8 12.0 12.2 12.4 12.6 12.7 12.9 13.0 13.0 13.0 12.9 12.8 12.7 12.7 12.7 12.8 12.8 13.0 13.1 13.2 13.4 13.6 13.8 13.9 14.0 13.7 13.0 12.5 12.1 12.2 12.5 12.4 12.2 12.5 12.2
6.9 8.5 10.0 11.1 11.9 12.3 12.4 12.6 12.8 13.0 13.1 13.3 13.3 13.4 13.5 13.4 13.4 13.4 13.4 13.3 13.3 13.4 13.5 13.6 13.7 13.8 13.9 14.1 14.3 14.4 14.6 14.7 14.8 14.7 14.4 13.5 13.3 13.2 13.2 12.9 13.0 12.9
8.4 9.9 11.3 12.2 12.6 12.9 13.1 13.3 13.6 13.7 13.7 13.8 13.8 13.8 13.8 13.8 13.8 13.8 13.8 13.9 13.9 14.0 14.0 14.1 14.2 14.3 14.4 14.5 14.6 14.7 14.8 15.1 15.3 15.4 15.4 15.2 15.0 14.5 14.4 14.5 14.6 14.4
10.1 11.6 12.3 12.8 13.2 13.4 13.7 13.9 14.0 14.0 14.1 14.1 14.1 14.2 14.2 14.2 14.3 14.3 14.4 14.4 14.4 14.5 14.5 14.6 14.8 14.9 15.0 15.1 15.1 15.2 15.2 15.4 15.6 15.8 16.0 16.1 15.9 15.9 15.5 15.5 15.6 15.4
11.9 12.6 13.1 13.5 13.8 14.0 14.2 14.3 14.4 14.4 14.4 14.5 14.5 14.5 14.6 14.7 14.8 14.8 14.9 15.0 15.0 15.1 15.2 15.4 15.6 15.7 15.8 15.9 16.0 16.1 16.1 16.2 16.3 16.3 16.6 16.8 16.8 16.6 16.5 16.4 16.3 16.5
12.9 13.4 13.8 14.1 14.3 14.6 14.7 14.7 14.8 14.8 14.8 14.8 14.9 15.0 15.1 15.1 15.2 15.2 15.3 15.4 15.5 15.7 15.8 16.0 16.2 16.3 16.5 16.6 16.6 16.8 16.9 17.0 17.1 17.1 17.3 17.4 17.5 17.6 17.5 17.5 17.4 17.3
13.9 14.3 14.6 14.8 14.9 15.1 15.1 15.1 15.1 15.0 15.1 15.2 15.3 15.4 15.4 15.5 15.5 15.6 15.6 15.8 15.9 16.2 16.4 16.6 16.8 16.9 17.1 17.2 17.2 17.3 17.4 17.5 17.6 17.8 17.9 17.9 18.0 18.1 18.3 18.4 18.3 18.1
14.8 15.0 15.2 15.3 15.3 15.4 15.3 15.3 15.3 15.2 15.3 15.4 15.4 15.6 15.7 15.8 15.9 15.9 16.0 16.2 16.4 16.7 16.9 17.1 17.2 17.4 17.6 17.8 17.9 17.9 18.0 18.0 18.1 18.3 18.4 18.5 18.6 18.6 18.7 18.9 18.9 19.0
15.3 15.4 15.5 15.6 15.6 15.6 15.5 15.5 15.5 15.5 15.6 15.7 15.8 15.9 15.9 16.0 16.1 16.3 16.4 16.7 17.0 17.2 17.3 17.5 17.6 17.8 18.0 18.2 18.4 18.5 18.6 18.7 18.7 18.8 18.9 19.0 19.1 19.3 19.3 19.4 19.5 19.5
15.6 15.7 15.8 15.8 15.8 15.8 15.7 15.7 15.7 15.8 15.9 16.0 16.2 16.3 16.3 16.4 16.6 16.8 17.1 17.3 17.6 17.7 17.8 18.0 18.1 18.3 18.5 18.7 18.9 19.0 19.1 19.2 19.3 19.4 19.5 19.5 19.6 19.8 19.9 20.0 20.0 20.0
15.7 15.8 15.9 15.9 16.0 15.9 15.9 16.0 16.0 16.2 16.4 16.4 16.6 16.6 16.7 16.8 16.9 17.2 17.6 17.8 18.0 18.2 18.4 18.6 18.7 18.9 19.0 19.2 19.4 19.7 19.8 19.8 19.8 19.8 19.9 19.9 20.1 20.3 20.4 20.6 20.7 20.6
15.8 16.0 16.1 16.2 16.3 16.3 16.4 16.5 16.5 16.7 16.9 17.0 17.1 17.2 17.2 17.3 17.4 17.5 17.9 18.2 18.4 18.6 18.9 19.1 19.4 19.6 19.8 19.8 20.0 20.3 20.6 20.6 20.5 20.5 20.4 20.4 20.4 20.6 20.8 21.1 21.3 21.3
16.2 16.3 16.5 16.6 16.7 16.8 16.8 16.9 17.1 17.2 17.4 17.5 17.7 17.7 17.8 17.8 17.9 18.1 18.3 18.5 18.8 19.2 19.5 19.8 20.1 20.4 20.7 20.8 20.8 20.9 21.1 21.3 21.3 21.1 21.2 21.1 20.9 20.9 21.0 21.3 21.7 21.9
16.8 16.8 17.0 17.1 17.1 17.2 17.3 17.4 17.6 17.7 17.8 18.0 18.2 18.3 18.4 18.5 18.6 18.9 19.1 19.3 19.5 19.7 20.0 20.3 20.7 21.1 21.4 20.9 20.5 21.7 21.7 21.1 20.5 21.3 21.9 21.9 21.8 21.6 21.4 21.5 21.8 22.3
17.2 17.2 17.3 17.4 17.5 17.7 17.8 17.9 18.1 18.2 18.4 18.6 18.7 18.9 19.2 19.3 19.4 19.7 19.9 20.2 20.4 20.5 20.6 20.8 21.0 21.4 21.8 19.6 17.6 16.8 19.1 21.1 20.9 20.7 21.3 22.1 22.5 22.4 22.3 22.2 22.3 22.5
17.5 17.5 17.5 17.8 18.0 18.2 18.4 18.5 18.7 18.8 18.9 19.1 19.3 19.5 19.7 19.7 19.9 20.2 20.4 20.7 21.0 21.1 21.3 21.5 21.5 21.7 21.0 18.6 17.7 17.0 17.6 19.6 20.7 20.4 20.3 20.7 21.8 22.7 22.7 22.7 22.7 22.5
17.7 17.8 17.9 18.2 18.4 18.6 18.8 18.9 19.0 19.1 19.2 19.4 19.6 19.9 20.1 20.1 20.3 20.5 20.7 21.0 21.3 21.5 21.7 21.9 21.9 22.2 21.5 18.9 17.8 17.2 16.5 18.3 20.0 20.0 20.2 20.5 20.8 21.2 21.8 22.5 23.2 23.5
17.9 18.0 18.1 18.3 18.5 18.6 18.8 19.0 19.2 19.3 19.5 19.8 20.1 20.3 20.4 20.5 20.6 20.7 20.8 21.2 21.5 21.8 21.8 21.9 22.0 22.2 22.1 19.1 17.9 17.2 16.8 17.2 20.4 20.3 20.3 20.5 20.8 21.2 21.9 23.0 24.0 24.8
18.2 18.2 18.3 18.4 18.7 19.0 19.2 19.6 19.9 20.1 20.3 20.6 20.9 21.0 21.1 21.1 21.1 21.2 21.3 21.4 21.8 22.1 22.1 22.1 22.3 22.6 21.7 20.0 18.3 17.5 16.9 18.2 21.4 22.6 22.7 22.9 22.8 23.4 24.2 25.0 25.5 25.5
18.5 18.7 18.9 19.2 19.5 19.9 20.4 20.8 21.0 21.2 21.4 21.7 21.8 21.9 22.0 22.1 22.2 22.3 22.4 22.4 22.4 22.7 22.7 22.5 22.7 23.3 22.0 20.9 19.3 17.9 17.6 20.5 23.9 25.0 25.1 24.9 24.9 25.4 25.8 25.9 25.9 25.9
19.3 19.5 20.0 20.4 20.8 21.3 21.7 21.9 22.1 22.2 22.5 22.8 22.9 22.9 23.0 23.2 23.4 23.5 23.6 23.7 23.5 23.6 23.7 23.4 23.2 23.7 22.7 21.7 20.9 18.5 19.4 22.6 25.3 25.4 25.4 25.6 25.7 25.8 25.9 26.0 26.1 26.0
20.3 20.7 21.2 21.6 22.0 22.3 22.6 22.7 22.9 23.0 23.3 23.8 24.0 24.0 24.0 24.2 24.2 24.2 24.3 24.5 24.6 24.5 24.8 24.6 24.2 24.3 23.1 22.5 21.5 19.9 20.5 22.5 24.4 25.8 25.8 25.9 26.0 26.1 26.3 26.5 26.3 24.0
21.3 21.8 22.2 22.5 22.7 23.1 23.3 23.5 23.7 23.8 24.2 24.6 24.7 24.6 24.5 24.5 24.7 24.7 24.7 24.9 25.2 25.2 24.3 24.5 25.1 24.7 23.5 23.0 22.0 20.9 21.0 23.6 24.5 26.5 26.5 26.5 26.6 26.6 26.8 27.0 26.8 25.4
22.2 22.6 23.0 23.3 23.6 23.9 24.2 24.5 24.7 24.9 25.2 25.2 25.2 25.1 25.1 25.1 25.1 25.3 25.1 25.1 24.9 25.0 25.6 26.0 26.4 26.4 25.5 24.0 23.2 22.5 21.8 22.9 24.6 26.4 26.6 26.8 27.1 27.0 27.3 27.5 27.4 27.3